Terminal Aerodrome Forecast
Issued by NWS Upton, NY

Home | Current Version | Previous Version | Text Only | Print | Product List | Glossary On
Versions: 1 2 3 4 5 6 7 8 9 10 11 12 13 14 15 16 17 18 19 20 21 22 23 24 25 26 27 28 29 30 31 32 33 34 35
245
FTUS41 KOKX 232337
TAFJFK
TAF
KJFK 232337Z 2400/2506 20009KT P6SM SCT005 BKN060
     FM240400 19005KT 3SM BR BKN004
     FM240600 18004KT 1/2SM FG OVC004
      TEMPO 2408/2412 1/4SM FG OVC002
     FM241500 18007KT 3SM BR SCT005 BKN010
     FM241800 18010KT P6SM SCT025 SCT250
     FM250300 18008KT P6SM BKN025=

USA.gov is the U.S. government's official web portal to all federal, state and local government web resources and services.